Tracking 17631 objects as of 5-May-2016
HD Live streaming from Space Station
objects crossing your sky now

ASIASTAR

Track ASIASTAR now!
ASIASTAR is classified as:


NORAD ID: 26107
Int'l Code: 2000-016A
Perigee: 35,776.0 km
Apogee: 35,811.1 km
Inclination: 0.8 °
Period: 1,436.1 minutes
Semi major axis: 42164 km
RCS: 19.9526 m2 (large)
Launch date: March 21, 2000
Source: United States (US)
Launch site: FRENCH GUIANA (FRGUI)

Africa, Middle East, Asia, Latin America and Caribbean. Services to underserved emerging markets; low-cost portable receivers.
Your satellite tracking list
Your tracking list is empty





NASA's NSSDC Master Catalog

Two Line Element Set (TLE):
1 26107U 00016A   16124.89540269 -.00000344  00000-0  00000+0 0  9991
2 26107   0.8358  81.4220 0004160 324.5361 243.6148  1.00272374 59080
Source of the keplerian elements: AFSPC

N2YO: 368